Dewpoint
17 16 16 17 15 15 14 15 17 18 19 19 20 20 20 19 21 25 26 27 27 27
18 17 17 18 15 14 14 11 16 17 17 18 19 19 19 19 20 21 22 24 26 26
18 18 18 18 17 16 16 15 15 16 17 17 18 19 19 18 20 20 20 20 22 22
19 19 19 19 20 20 18 16 15 16 17 18 19 20 21 22 21 20 21 21 21 21
25 24 22 23 24 25 23 18 17 17 18 19 20 22 21 20 22 21 21 22 22 22
24 26 26 26 26 26 25 24 23 22 21 22 22 22 22 21 21 21 21 21 21 21
24 20 23 26 25 25 24 24 24 24 24 23 23 23 22 22 21 21 20 20 19 19
24 18 16 19 22 22 21 21 24 24 25 26 24 22 21 19 21 20 20 18 18 16
23 20 14 14 16 17 16 16 16 18 21 22 18 20 19 17 19 19 17 16 13 9
22 18 12 12 13 14 15 16 15 16 17 18 18 18 18 17 15 13 13 13 11 7
18 15 11 11 12 15 15 15 15 16 17 17 17 18 16 14 14 14 14 13 12 10
17 14 10 11 13 14 13 14 15 16 16 16 16 18 16 13 11 12 13 14 14 12
17 13 11 13 14 13 11 12 14 16 19 19 18 17 17 14 13 15 16 16 16 14
18 16 16 17 17 15 12 12 18 21 22 22 22 20 17 16 18 18 18 17 18 16
Wind_Speed
6 6 6 6 6 7 8 8 9 10 9 8 9 8 8 9 10 10 11 13 13 10
7 6 7 7 6 8 8 7 8 8 8 8 10 10 9 11 12 12 12 12 13 12
8 7 7 8 9 10 7 7 7 8 9 10 12 12 12 11 13 13 12 12 14 14
9 8 8 9 9 7 7 7 8 9 11 13 12 12 13 13 13 13 14 14 16 16
9 7 10 9 8 7 8 9 9 11 12 12 12 13 12 12 12 13 14 15 17 18
11 11 11 10 9 9 9 10 11 11 11 11 11 11 10 10 11 12 13 15 16 17
11 12 13 11 10 9 10 10 9 9 9 9 9 8 9 9 10 11 12 13 15 16
13 12 12 12 10 10 10 11 9 9 7 7 8 6 6 11 11 10 11 12 11 14
14 13 11 11 10 10 10 9 9 9 10 8 9 8 7 7 10 11 11 11 12 12
16 14 13 12 12 11 10 9 9 8 8 9 10 8 7 5 9 10 11 11 11 13
17 15 14 14 12 11 10 10 9 8 7 9 9 7 3 3 8 9 11 12 12 13
17 17 16 15 14 12 11 10 9 8 8 9 10 6 1 2 6 7 9 11 14 12
18 17 16 15 14 12 11 10 9 8 8 6 9 7 4 3 4 5 6 7 8 14
17 17 16 15 12 12 11 10 9 9 7 6 4 8 6 4 5 4 4 5 6 9
Wind_Direction
129 115 106 89 88 74 64 52 44 49 43 39 37 34 30 34 34 30 32 24 19 13
122 113 111 105 93 81 67 66 61 58 56 49 45 39 39 40 34 32 28 25 22 22
124 129 121 105 88 81 82 76 75 68 58 54 48 43 44 42 39 38 33 29 27 26
136 128 114 101 95 96 90 83 75 69 65 55 50 46 52 46 34 43 36 32 32 29
120 112 112 108 109 96 90 82 77 72 68 61 54 51 45 54 48 42 41 32 32 28
129 121 120 121 124 111 98 84 76 71 71 67 61 59 55 52 53 51 45 40 37 31
159 144 137 134 132 122 111 103 95 89 84 76 73 65 67 58 57 54 48 45 43 38
165 150 141 141 140 135 129 115 118 108 100 104 79 55 80 75 58 58 57 50 53 45
165 157 148 146 145 141 133 131 134 126 119 104 80 66 36 57 78 61 52 52 45 48
166 157 154 150 149 144 138 139 133 131 124 109 96 77 60 4 69 62 60 52 48 46
164 160 159 159 155 148 148 145 142 136 132 114 98 98 73 344 79 73 64 52 48 47
167 164 165 164 160 156 152 150 142 141 136 121 113 108 39 296 95 85 73 67 43 39
169 168 168 164 161 161 160 151 146 137 125 109 121 105 69 346 95 85 88 60 68 53
169 168 165 162 165 167 157 152 141 141 130 123 104 116 96 37 86 84 82 61 55 45